This is the latest recevied weather packets stored in our database for station/object N0HOT. If no packets are shown the sender has not sent any weather packets the latest 1 day(s).
| Time | Temp. | Humidity | Pressure | Rain* | Wind** | Luminosity | Snow |
|---|---|---|---|---|---|---|---|
| 1778034264 | 8.89° C | 38% | 1012.2 hPa | 0 mm | - | 0 W/m² | - |
| 1778033962 | 8.89° C | 38% | 1011.8 hPa | 0 mm | - | 0 W/m² | - |
| 1778033659 | 8.89° C | 39% | 1011.8 hPa | 0 mm | - | 0 W/m² | - |
| 1778033356 | 8.89° C | 40% | 1011.8 hPa | 0 mm | - | 0 W/m² | - |
| 1778033054 | 8.89° C | 39% | 1011.8 hPa | 0 mm | - | 0 W/m² | - |
| 1778032751 | 8.89° C | 39% | 1011.5 hPa | 0 mm | - | 0 W/m² | - |
| 1778032145 | 9.44° C | 40% | 1011.1 hPa | 0 mm | - | 0 W/m² | - |
| 1778031538 | 9.44° C | 35% | 1011.1 hPa | 0 mm | - | 0 W/m² | - |
| 1778031236 | 9.44° C | 35% | 1011.5 hPa | 0 mm | - | 0 W/m² | - |
| 1778030932 | 9.44° C | 36% | 1011.1 hPa | 0 mm | - | 0 W/m² | - |
| 1778030629 | 9.44° C | 35% | 1011.1 hPa | 0 mm | - | 0 W/m² | - |
| 1778030023 | 10° C | 34% | 1011.1 hPa | 0 mm | - | 2 W/m² | - |
| 1778029418 | 10° C | 34% | 1010.8 hPa | 0 mm | - | 5 W/m² | - |
| 1778029115 | 10° C | 34% | 1011.1 hPa | 0 mm | - | 9 W/m² | - |
| 1778028812 | 10.56° C | 33% | 1010.8 hPa | 0 mm | - | 12 W/m² | - |
| 1778028508 | 10.56° C | 32% | 1010.8 hPa | 0 mm | - | 17 W/m² | - |
| 1778027598 | 10.56° C | 32% | 1010.5 hPa | 0 mm | - | 39 W/m² | - |
| 1778027295 | 10.56° C | 31% | 1010.8 hPa | 0 mm | - | 39 W/m² | - |
| 1778026081 | 10.56° C | 31% | 1010.5 hPa | 0 mm | - | 57 W/m² | - |
| 1778023962 | 11.11° C | 29% | 1010.1 hPa | 0 mm | - | 39 W/m² | - |
| 1778023659 | 11.11° C | 28% | 1010.5 hPa | 0 mm | - | 32 W/m² | - |
| 1778022752 | 11.67° C | 28% | 1010.5 hPa | 0 mm | - | 80 W/m² | - |
| 1778021235 | 11.67° C | 28% | 1010.5 hPa | 0 mm | - | 118 W/m² | - |
| 1778019416 | 11.67° C | 28% | 1010.5 hPa | 0 mm | - | 121 W/m² | - |
| 1778019112 | 11.67° C | 28% | 1010.5 hPa | 0 mm | - | 121 W/m² | - |
* Rain latest hour (hover to see other rain measurements)
** Current wind speed in m/s (hover to see current wind gust speed)